Weather in Karagayskiy

Russia / Chelyabinsk Oblast     54°07′07″N   59°30′47″E
temp.,
°C
wind,
m/s
gust,
m/s
humid.,
%
clouds,
%
prec.,
mm/h
press.,
hPa
HPBL,
m
21 april, wed
wed2123:00+2w22410 0.0 103211
02:00+1wnw11460 0.0 103310
05:000nw11490 0.0 103310
08:00+3w22430 0.0 1034160
11:00+7sw11340 0.0 1033812
14:00+10ssw223078 0.0 10321263
17:00+11ssw332849 0.0 10321424
20:00+8s333929 0.0 103250
22 april, thu
thu2223:00+6ssw3548100 0.0 103478
02:00+4s2257100 0.0 103428
05:00+3s2361100 0.0 103540
08:00+5s3955100 0.0 1035363
11:00+8s6940100 0.0 1035949
14:00+11ssw6933100 0.1 10341429
17:00+9ssw6840100 0.1 10341222
20:00+8s4848100 0.0 1034242
23 april, fri
fri2323:00+6s3958100 0.0 1034264
02:00+6s41065100 0.0 1033450
05:00+6sse4968100 0.0 1033369
08:00+5s51181100 0.4 1033927
11:00+7s5880100 0.6 1032821
14:00+11ssw5748100 0.1 10301725
17:00+12ssw5751100 0.2 10301565
20:00+10se2359100 0.0 102958
24 april, sat
sat2423:00+9s4768100 0.2 1028656
02:00+6s4788100 2.0 1028942
05:00+5sse5892100 3.1 1026889
08:00+6se5985100 0.9 1025900
11:00+7ese5768100 1.4 1023682
14:00+10se81045100 0.0 10201366
17:00+7sse81075100 0.2 10191032
20:00+5e7148376 0.3 1017596
25 april, sun
sun2523:00+5e71566100 0.3 1014591
02:00+6sse4979100 0.3 1011430
05:00+6sw5993100 1.0 1011461
08:00+5wsw3992100 0.4 1012833
11:00+6wsw7118695 0.4 1014978
14:00+10wsw101371100 0.1 10151290
17:00+10wsw913624 0.1 10151487
20:00+7w610665 0.0 1017509